Overview Statistics Trail Chart Weather Telemetry Raw packets
 

This is the latest recevied weather packets stored in our database for station/object AJ1L. If no packets are shown the sender has not sent any weather packets the latest 10 day(s).

<< 1 2 3 4 >>
Time Temp. Humidity Pressure Rain* Wind** Luminosity Snow
1788573218 20° C 90% 1008.9 hPa 0 mm - - -
1788572219 20° C 90% 1009.1 hPa 0 mm - - -
1788571219 20.56° C 89% 1009.1 hPa 0 mm - - -
1788569219 20.56° C 87% 1009 hPa 0 mm - - -
1788568219 21.11° C 86% 1008.9 hPa 0 mm - - -
1788567218 21.67° C 84% 1008.8 hPa 0 mm - - -
1788566219 22.22° C 83% 1008.7 hPa 0 mm - - -
1788565218 22.78° C 82% 1008.4 hPa 0 mm - - -
1788564218 23.33° C 78% 1008.2 hPa 0 mm - - -
1788563219 24.44° C 73% 1008.1 hPa 0 mm - - -
1788562218 25.56° C 67% 1008.1 hPa 0 mm - - -
1788561218 26.11° C 56% 1008.1 hPa 0 mm - - -
1788560219 26.67° C 53% 1007.9 hPa 0 mm - - -
1788559218 27.22° C 55% 1007.8 hPa 0 mm - - -
1788558218 26.67° C 55% 1007.8 hPa 0 mm - - -
1788557218 26.67° C 57% 1007.8 hPa 0 mm - - -
1788556218 26.67° C 59% 1007.8 hPa 0 mm - - -
1788555218 27.22° C 56% 1007.7 hPa 0 mm - - -
1788554218 27.22° C 61% 1007.8 hPa 0 mm - - -
1788552218 27.78° C 58% 1007.8 hPa 0 mm - - -
1788551218 28.33° C 57% 1007.7 hPa 0 mm - - -
1788549218 27.78° C 53% 1007.8 hPa 0 mm - - -
1788548218 27.78° C 56% 1007.9 hPa 0 mm - - -
1788547218 28.33° C 54% 1007.8 hPa 0 mm - - -
1788546218 27.78° C 54% 1008 hPa 0 mm - - -

* Rain latest hour (hover to see other rain measurements)
** Current wind speed in m/s (hover to see current wind gust speed)